�������l�o���
Date,Time,MP-1(��Sv/h),MP-2(��Sv/h),MP-3(��Sv/h),MP-4(��Sv/h),MP-5(��Sv/h),MP-6(��Sv/h),MP-7(��Sv/h),MP-8(��Sv/h),����,����(m/s),���J
2018/11/13,00:00,0.772,1.164,0.814,1.444,1.048,0.457,0.799,0.756,�k�k��,6.6,��
2018/11/13,00:10,0.771,1.162,0.815,1.442,1.050,0.458,0.798,0.758,�k�k��,6.6,�L
2018/11/13,00:20,0.771,1.164,0.816,1.442,1.048,0.456,0.797,0.757,�k�k��,6.5,�L
2018/11/13,00:30,0.769,1.165,0.813,1.441,1.049,0.457,0.800,0.755,�k�k��,6.9,��
2018/11/13,00:40,0.771,1.164,0.814,1.444,1.047,0.456,0.798,0.757,�k�k��,7.0,��
2018/11/13,00:50,0.772,1.165,0.815,1.442,1.051,0.457,0.799,0.756,�k,6.8,��
2018/11/13,01:00,0.769,1.165,0.814,1.442,1.048,0.457,0.799,0.757,�k�k��,6.8,��
2018/11/13,01:10,0.770,1.164,0.814,1.441,1.049,0.457,0.799,0.756,�k�k��,6.4,��
2018/11/13,01:20,0.768,1.162,0.815,1.442,1.050,0.457,0.798,0.756,�k�k��,6.3,��
2018/11/13,01:30,0.771,1.162,0.813,1.445,1.048,0.457,0.799,0.756,�k�k��,5.7,��
2018/11/13,01:40,0.771,1.164,0.814,1.442,1.050,0.457,0.798,0.756,�k,4.9,��
2018/11/13,01:50,0.770,1.164,0.815,1.445,1.049,0.456,0.797,0.756,�k,5.2,��
2018/11/13,02:00,0.770,1.162,0.814,1.444,1.048,0.457,0.798,0.757,�k,5.5,��
2018/11/13,02:10,0.770,1.164,0.817,1.443,1.048,0.457,0.797,0.757,�k,5.0,��
2018/11/13,02:20,0.771,1.163,0.816,1.442,1.049,0.456,0.798,0.757,�k,5.6,��
2018/11/13,02:30,0.770,1.164,0.814,1.445,1.048,0.457,0.796,0.757,�k,6.3,��
2018/11/13,02:40,0.770,1.164,0.812,1.441,1.049,0.457,0.796,0.758,�k,6.5,��
2018/11/13,02:50,0.769,1.164,0.814,1.443,1.047,0.456,0.798,0.757,�k�k��,6.1,��
2018/11/13,03:00,0.772,1.162,0.813,1.444,1.048,0.456,0.797,0.757,�k,5.3,��
2018/11/13,03:10,0.771,1.162,0.814,1.444,1.049,0.453,0.798,0.756,�k�k��,4.8,��
2018/11/13,03:20,0.770,1.160,0.813,1.441,1.047,0.457,0.798,0.758,�k�k��,5.2,��
2018/11/13,03:30,0.770,1.163,0.814,1.442,1.050,0.456,0.798,0.756,�k�k��,5.1,�L
2018/11/13,03:40,0.769,1.166,0.815,1.441,1.049,0.454,0.798,0.756,�k�k��,5.8,��
2018/11/13,03:50,0.771,1.162,0.814,1.442,1.048,0.456,0.799,0.757,�k�k��,5.4,��
2018/11/13,04:00,0.772,1.163,0.814,1.444,1.048,0.455,0.798,0.757,�k�k��,5.5,��
2018/11/13,04:10,0.770,1.164,0.814,1.444,1.049,0.457,0.797,0.757,�k�k��,5.5,��
2018/11/13,04:20,0.770,1.162,0.813,1.442,1.050,0.456,0.797,0.757,�k,6.0,��
2018/11/13,04:30,0.768,1.163,0.814,1.444,1.049,0.456,0.798,0.756,�k�k��,6.0,��
2018/11/13,04:40,0.770,1.164,0.814,1.442,1.049,0.455,0.798,0.756,�k,5.9,��
2018/11/13,04:50,0.771,1.163,0.815,1.441,1.047,0.457,0.797,0.758,�k�k��,5.8,��
2018/11/13,05:00,0.770,1.161,0.813,1.441,1.050,0.455,0.798,0.757,�k�k��,6.4,��
2018/11/13,05:10,0.771,1.163,0.814,1.440,1.047,0.456,0.797,0.757,�k�k��,5.8,��
2018/11/13,05:20,0.771,1.161,0.814,1.443,1.048,0.456,0.797,0.755,�k�k��,6.9,��
2018/11/13,05:30,0.768,1.165,0.814,1.442,1.049,0.454,0.796,0.756,�k�k��,6.2,��
2018/11/13,05:40,0.770,1.166,0.813,1.440,1.047,0.456,0.798,0.755,�k�k��,6.0,��
2018/11/13,05:50,0.769,1.163,0.815,1.444,1.049,0.455,0.797,0.757,�k�k��,5.4,��
2018/11/13,06:00,0.769,1.163,0.814,1.442,1.047,0.455,0.796,0.757,�k�k��,5.8,��
2018/11/13,06:10,0.769,1.163,0.813,1.443,1.047,0.454,0.798,0.756,�k�k��,5.3,��
2018/11/13,06:20,0.770,1.163,0.815,1.443,1.049,0.455,0.796,0.757,�k�k��,5.5,��
2018/11/13,06:30,0.769,1.165,0.816,1.442,1.047,0.455,0.799,0.757,�k�k��,5.6,��
2018/11/13,06:40,0.770,1.162,0.814,1.441,1.047,0.456,0.798,0.756,�k�k��,5.5,��
2018/11/13,06:50,0.769,1.163,0.813,1.442,1.050,0.454,0.797,0.756,�k�k��,6.1,��
2018/11/13,07:00,0.770,1.162,0.813,1.444,1.046,0.456,0.797,0.755,�k�k��,5.6,��
2018/11/13,07:10,0.769,1.161,0.814,1.443,1.050,0.455,0.796,0.756,�k�k��,5.4,��
2018/11/13,07:20,0.771,1.163,0.815,1.443,1.050,0.454,0.798,0.757,�k�k��,6.1,��
2018/11/13,07:30,0.770,1.164,0.814,1.443,1.050,0.455,0.798,0.756,�k�k��,5.7,��
2018/11/13,07:40,0.769,1.164,0.813,1.444,1.050,0.455,0.799,0.756,�k�k��,5.6,��
2018/11/13,07:50,0.771,1.162,0.813,1.444,1.049,0.456,0.796,0.757,�k�k��,5.5,��
2018/11/13,08:00,0.768,1.163,0.813,1.442,1.048,0.456,0.798,0.756,�k�k��,5.0,��
2018/11/13,08:10,0.770,1.165,0.814,1.444,1.051,0.454,0.798,0.756,�k�k��,4.7,��
2018/11/13,08:20,0.768,1.166,0.814,1.443,1.049,0.456,0.798,0.757,�k�k��,4.6,��
2018/11/13,08:30,0.771,1.161,0.811,1.444,1.050,0.456,0.798,0.756,�k�k��,4.3,��
2018/11/13,08:40,0.770,1.163,0.812,1.441,1.048,0.454,0.799,0.756,�k�k��,5.1,��
2018/11/13,08:50,0.770,1.164,0.813,1.442,1.049,0.456,0.798,0.759,�k�k��,5.2,��
2018/11/13,09:00,0.772,1.164,0.813,1.444,1.048,0.454,0.797,0.758,�k�k��,5.8,��
2018/11/13,09:10,0.771,1.161,0.813,1.440,1.050,0.455,0.796,0.760,�k,4.7,��
2018/11/13,09:20,0.770,1.160,0.814,1.443,1.050,0.456,0.799,0.756,�k�k��,5.6,��
2018/11/13,09:30,0.770,1.160,0.812,1.443,1.048,0.456,0.799,0.757,�k,4.7,��
2018/11/13,09:40,0.770,1.160,0.814,1.446,1.050,0.453,0.797,0.756,�k,5.3,��
2018/11/13,09:50,0.770,1.158,0.814,1.443,1.050,0.455,0.798,0.756,�k,6.5,��
2018/11/13,10:00,0.770,1.158,0.816,1.444,1.050,0.454,0.797,0.755,�k,6.6,��
2018/11/13,10:10,0.773,1.158,0.816,1.445,1.048,0.454,0.798,0.754,�k,6.6,��
2018/11/13,10:20,0.769,1.160,0.816,1.444,1.045,0.454,0.800,0.755,�k,7.9,��
2018/11/13,10:30,0.769,1.161,0.815,1.444,1.047,0.454,0.798,0.754,�k�k��,5.9,��
2018/11/13,10:40,0.770,1.157,0.816,1.446,1.050,0.453,0.800,0.753,�k,6.9,��
2018/11/13,10:50,0.770,1.160,0.817,1.446,-,0.455,0.798,0.754,�k�k��,6.0,��
2018/11/13,11:00,0.769,1.157,0.816,1.448,-,0.454,0.799,0.754,�k,6.0,��
2018/11/13,11:10,0.770,1.159,0.815,1.448,-,0.453,0.798,0.753,�k,6.2,��
2018/11/13,11:20,0.768,1.160,0.814,1.446,-,0.454,0.799,0.755,�k�k��,6.2,��
2018/11/13,11:30,0.771,1.162,0.815,1.446,-,0.455,0.799,0.754,�k�k��,6.8,��
2018/11/13,11:40,0.772,1.158,0.815,1.445,-,0.456,0.800,0.754,�k,6.8,��
2018/11/13,11:50,0.772,1.161,0.815,1.446,-,0.455,0.799,0.756,�k,5.6,��
2018/11/13,12:00,0.774,1.162,0.816,1.444,-,0.453,0.799,0.756,�k,5.9,��
2018/11/13,12:10,0.771,1.162,0.817,1.446,-,0.455,0.799,0.753,�k�k��,5.3,��
2018/11/13,12:20,0.772,1.161,0.816,1.445,-,0.454,0.798,0.755,�k,5.3,��
2018/11/13,12:30,0.773,1.161,0.816,1.447,-,0.453,0.800,0.754,�k�k��,4.5,��
2018/11/13,12:40,0.771,1.161,0.817,1.447,-,0.455,0.799,0.757,�k�k��,5.4,��
2018/11/13,12:50,0.774,1.163,0.817,1.448,-,0.455,0.800,0.755,�k�k��,5.6,��
2018/11/13,13:00,0.775,1.162,0.819,1.446,-,0.454,0.800,0.755,�k�k��,5.0,��
2018/11/13,13:10,0.771,1.159,0.816,1.448,-,0.456,0.798,0.754,�k�k��,4.5,��
2018/11/13,13:20,0.770,1.158,0.812,1.448,-,0.454,0.797,0.754,�k�k��,4.4,��
2018/11/13,13:30,0.770,1.162,0.814,1.449,-,0.453,0.799,0.755,�k�k��,4.7,��
2018/11/13,13:40,0.770,1.160,0.813,1.447,-,0.454,0.797,0.756,�k�k��,4.0,��
2018/11/13,13:50,0.771,1.164,0.813,1.447,-,0.455,0.800,0.756,�k,4.8,��
2018/11/13,14:00,0.771,1.162,0.814,1.446,-,0.454,0.798,0.755,�k�k��,4.0,��
2018/11/13,14:10,0.772,1.161,0.815,1.449,-,0.455,0.799,0.755,�k,4.2,��
2018/11/13,14:20,0.773,1.160,0.818,1.449,-,0.456,0.798,0.757,�k�k��,3.9,��
2018/11/13,14:30,0.774,1.166,0.815,1.449,-,0.455,0.799,0.755,�k�k��,3.9,��
2018/11/13,14:40,0.775,1.163,0.820,1.449,-,0.456,0.799,0.756,�k�k��,4.0,��
2018/11/13,14:50,0.773,1.165,0.817,1.451,-,0.455,0.798,0.756,�k�k��,3.6,��
2018/11/13,15:00,0.773,1.168,0.817,1.447,-,0.454,0.798,0.755,�k�k��,3.0,��
2018/11/13,15:10,0.772,1.167,0.816,1.450,-,0.455,0.799,0.756,�k�k��,3.2,��
2018/11/13,15:20,0.776,1.167,0.816,1.451,1.051,0.456,0.798,0.756,�k�k��,3.4,��
2018/11/13,15:30,0.773,1.168,0.817,1.447,1.051,0.455,0.798,0.757,�k�k��,2.9,��
2018/11/13,15:40,0.775,1.168,0.817,1.449,1.050,0.454,0.799,0.757,�k�k��,3.0,��
2018/11/13,15:50,0.775,1.167,0.816,1.448,1.055,0.456,0.800,0.758,�k,3.0,��
2018/11/13,16:00,0.774,1.168,0.817,1.450,1.053,0.454,0.801,0.759,�k,2.9,��
2018/11/13,16:10,0.773,1.169,0.815,1.448,1.053,0.456,0.800,0.757,�k,3.5,��
2018/11/13,16:20,0.772,1.172,0.817,1.448,1.054,0.456,0.798,0.758,�k�k��,4.2,��
2018/11/13,16:30,0.773,1.168,0.817,1.451,1.055,0.457,0.799,0.757,�k�k��,3.6,��
2018/11/13,16:40,0.773,1.170,0.814,1.447,1.053,0.455,0.799,0.758,�k�k��,3.6,��
2018/11/13,16:50,0.773,1.172,0.817,1.449,1.054,0.456,0.801,0.757,�k�k��,3.8,��
2018/11/13,17:00,0.773,1.170,0.815,1.450,1.056,0.455,0.800,0.756,�k�k��,3.8,��
2018/11/13,17:10,0.773,1.171,0.818,1.449,1.056,0.454,0.801,0.756,�k�k��,3.9,��
2018/11/13,17:20,0.774,1.169,0.818,1.449,1.054,0.453,0.800,0.757,�k�k��,3.9,��
2018/11/13,17:30,0.771,1.171,0.817,1.448,1.051,0.455,0.802,0.757,�k�k��,4.1,��
2018/11/13,17:40,0.773,1.170,0.817,1.449,1.053,0.454,0.801,0.757,�k�k��,4.2,��
2018/11/13,17:50,0.772,1.169,0.815,1.449,1.054,0.455,0.801,0.757,�k�k��,4.2,��
2018/11/13,18:00,0.772,1.169,0.818,1.450,1.053,0.455,0.801,0.757,�k�k��,4.9,��
2018/11/13,18:10,0.772,1.172,0.819,1.451,1.053,0.456,0.799,0.756,�k�k��,5.1,��
2018/11/13,18:20,0.772,1.173,0.818,1.450,1.054,0.454,0.800,0.757,�k��,4.6,��
2018/11/13,18:30,0.773,1.171,0.817,1.451,1.053,0.454,0.799,0.755,�k��,5.2,��
2018/11/13,18:40,0.772,1.170,0.821,1.450,1.053,0.456,0.799,0.760,�k��,5.2,��
2018/11/13,18:50,0.773,1.169,0.819,1.452,1.053,0.456,0.801,0.756,�k��,5.2,��
2018/11/13,19:00,0.772,1.171,0.819,1.450,1.056,0.457,0.800,0.757,�k��,5.4,��
2018/11/13,19:10,0.776,1.172,0.817,1.449,1.055,0.455,0.801,0.758,�k��,5.3,��
2018/11/13,19:20,0.773,1.170,0.816,1.451,1.052,0.454,0.800,0.758,�k��,5.4,��
2018/11/13,19:30,0.772,1.171,0.815,1.448,1.053,0.456,0.800,0.757,�k��,5.5,��
2018/11/13,19:40,0.773,1.170,0.818,1.449,1.051,0.456,0.801,0.757,�k��,4.9,��
2018/11/13,19:50,0.774,1.171,0.817,1.448,1.053,0.455,0.800,0.756,�k��,5.5,��
2018/11/13,20:00,0.771,1.170,0.817,1.451,1.055,0.456,0.801,0.756,�k��,4.9,��
2018/11/13,20:10,0.773,1.169,0.817,1.447,1.055,0.455,0.801,0.756,�k�k��,5.5,��
2018/11/13,20:20,0.774,1.171,0.816,1.451,1.056,0.455,0.800,0.757,�k�k��,5.4,��
2018/11/13,20:30,0.772,1.171,0.817,1.451,1.053,0.455,0.800,0.757,�k�k��,6.4,��
2018/11/13,20:40,0.773,1.171,0.818,1.450,1.053,0.456,0.802,0.757,�k�k��,6.8,��
2018/11/13,20:50,0.772,1.170,0.816,1.450,1.054,0.457,0.800,0.758,�k�k��,7.8,��
2018/11/13,21:00,0.773,1.171,0.817,1.452,1.053,0.455,0.800,0.757,�k�k��,7.9,��
2018/11/13,21:10,0.774,1.169,0.818,1.451,1.053,0.455,0.801,0.756,�k�k��,8.0,��
2018/11/13,21:20,0.772,1.172,0.817,1.451,1.054,0.455,0.800,0.757,�k�k��,7.7,��
2018/11/13,21:30,0.773,1.172,0.817,1.451,1.054,0.455,0.800,0.758,�k�k��,7.5,��
2018/11/13,21:40,0.773,1.170,0.816,1.449,1.053,0.456,0.797,0.757,�k�k��,6.7,��
2018/11/13,21:50,0.773,1.169,0.815,1.452,1.053,0.456,0.798,0.757,�k�k��,7.0,��
2018/11/13,22:00,0.771,1.171,0.815,1.451,1.052,0.455,0.799,0.757,�k�k��,7.6,��
2018/11/13,22:10,0.773,1.170,0.816,1.450,1.052,0.455,0.799,0.758,�k�k��,7.6,��
2018/11/13,22:20,0.772,1.169,0.818,1.451,1.051,0.454,0.797,0.757,�k�k��,7.4,��
2018/11/13,22:30,0.770,1.172,0.817,1.451,1.053,0.456,0.799,0.756,�k�k��,8.2,��
2018/11/13,22:40,0.773,1.170,0.816,1.449,1.054,0.455,0.800,0.756,�k�k��,8.8,��
2018/11/13,22:50,0.773,1.169,0.817,1.451,1.054,0.456,0.799,0.758,�k�k��,7.4,��
2018/11/13,23:00,0.772,1.169,0.817,1.450,1.053,0.455,0.799,0.755,�k�k��,6.8,��
2018/11/13,23:10,0.774,1.171,0.817,1.450,1.054,0.456,0.798,0.755,�k�k��,7.2,��
2018/11/13,23:20,0.772,1.171,0.817,1.451,1.053,0.455,0.799,0.756,�k�k��,7.3,��
2018/11/13,23:30,0.774,1.169,0.817,1.450,1.052,0.455,0.800,0.757,�k�k��,6.8,��
2018/11/13,23:40,0.772,1.171,0.816,1.450,1.052,0.454,0.799,0.756,�k�k��,7.4,��
2018/11/13,23:50,0.773,1.170,0.816,1.451,1.055,0.454,0.800,0.757,�k�k��,7.3,��
